Location: ?????????
(38.5999°N, 22.7695°E)
Time: 11:57:34
(UTC+00:00)

SJ 16-02 - Pass Details

Date: 23 May 2024
Orbit: 594 x 606 km, 75.0° (Epoch: 19 June)

Event Time Altitude Azimuth Distance (km) Brightness Sun altitude
Exits shadow 01:40:37 20° 264° (W) 1,389 2.7 -15.2°
Maximum altitude 01:42:08 24° 295° (WNW) 1,238 2.7 -15.0°
Drops below altitude 10° 01:45:40 10° 350° (N) 1,935 4.3 -14.5°
Sets 01:48:15 0° 5° (N) 2,841 5.5 -14.1°
